View from above orbital plane
|
View from above satellite
|
Ground track
|
The orbit data is extracted from the following two-line orbital elements,
1 29093U 06015B 13169.21312359 .00004111 00000-0 17441-3 0 438
2 29093 097.5588 243.2565 0103871 091.5291 303.2552 15.18830685394259
| Epoch (UTC): | 18 June 2013 05:06:53 |
| Eccentricity: | 0.0103871 |
| inclination: | 97.5588° |
| perigee height: | 438 km |
| apogee height: | 581 km |
| right ascension of ascending node: | 243.2565° |
| argument of perigee: | 91.5291° |
| revolutions per day: | 15.18830685 |
| mean anomaly at epoch: | 303.2552° |
| orbit number at epoch: | 39425 |
The dashed part of the orbit path shows where the satellite is in the earth's shadow,
|
|